Location: Asheville, NC
(35.6000°N, 82.5500°W)
Time: 15:25:37
(UTC-04:00)

Oscar 11 - Pass Details

Date: 14 March 2018
Orbit: 613 x 627 km, 97.6° (Epoch: 24 June)

Event Time Altitude Azimuth Distance (km) Brightness Sun altitude
Exits shadow 20:23:08 10° 124° (SE) 1,980 9.1 -10.2°
Reaches altitude 10° 20:23:11 10° 124° (ESE) 1,962 9.1 -10.2°
Maximum altitude 20:26:36 24° 70° (ENE) 1,280 8.2 -10.9°
Drops below altitude 10° 20:30:02 10° 17° (NNE) 1,973 9.5 -11.6°
Sets 20:32:32 0° 3° (N) 2,883 10.5 -12.1°
